Weather Service Report


884 
ASUS43 KIND 192009
RWRIN 

WEATHER ROUNDUP FOR INDIANA
NATIONAL WEATHER SERVICE INDIANAPOLIS IN
400 PM EDT SAT APR 19 2014

NOTE: "FAIR" INDICATES FEW OR NO CLOUDS BELOW 12,000 FEET WITH NO
SIGNIFICANT WEATHER AND/OR OBSTRUCTIONS TO VISIBILITY.

* - STATION DOES NOT REPORT WEATHER SUCH AS PRECIPITATION OR FOG.

+ - STATION NOT QUALITY CONTROLLED BY THE NATIONAL WEATHER SERVICE.
    USE DATA WITH CAUTION...ESPECIALLY DEWPOINT AND RELATIVE
    HUMIDITY OBSERVATIONS.

INZ001>003-010>013-019-020-192100-
NORTHWEST INDIANA
  
CITY           SKY/WX    TMP DP  RH WIND       PRES   REMARKS
GARY /AIRPORT/ PTSUNNY   59  37  44 NE8       30.31F                  
LA PORTE +     MOSUNNY   63  33  32 SE7G16    30.31F                  
MICHIGAN CITY+ MOSUNNY   63  32  31 S10       30.30F                  
MONTICELLO +   SUNNY     64  38  38 E7        30.29F                  
RENSSELAER +   SUNNY     64  32  29 E9G17     30.29F                  
VALPARAISO     MOSUNNY   65  35  33 SE7G17    30.30F                  

$$

LMZ046-743>745-192100-
SOUTHERN LAKE MICHIGAN
  
STATION/POSITION TIME  TEMP WIND        PRES
                       AIR  DIR/SP/G
                 (UTC) (F)  (DEG/KT/KT) (MB)
MICHIGAN CITY    2000   61  110/  9/ 12   N/A

$$

INZ004-005-014>016-021>024-192100-
NORTH CENTRAL INDIANA
  
CITY           SKY/WX    TMP DP  RH WIND       PRES   REMARKS
ELKHART        MOSUNNY   63  32  31 E9G16     30.32F                  
GOSHEN         SUNNY     61  35  37 E8        30.32F                  
LOGANSPORT +   SUNNY     63  34  34 E12       30.31F                  
PERU/GRISSOM   SUNNY     64  39  39 E15       30.30F                  
ROCHESTER +    SUNNY     64  34  32 E10G17    30.32F                  
SOUTH BEND     MOSUNNY   62  34  35 SE13      30.33                   
WARSAW +       SUNNY     59  36  41 E12G18    30.32F                  

$$

INZ006>009-017-018-025>027-192100-
NORTHEAST INDIANA
  
CITY           SKY/WX    TMP DP  RH WIND       PRES   REMARKS
ANGOLA *+      SUNNY     57  30  35 SE13      30.35F                  
AUBURN +       SUNNY     59  32  36 E13       30.35F                  
FORT WAYNE     MOSUNNY   60  32  34 E17G23    30.34F                  

$$

INZ028-029-035-036-043>045-051>053-192100-
WEST CENTRAL INDIANA
  
CITY           SKY/WX    TMP DP  RH WIND       PRES   REMARKS
GREENCASTLE +  SUNNY     68  39  34 E8G16     30.26F                  
LAFAYETTE      SUNNY     66  37  34 E14G20    30.28F                  
TERRE HAUTE    SUNNY     71  36  27 E8        30.24F                  

$$

INZ030>032-037>040-046>048-054>057-064-065-192100-
CENTRAL INDIANA
  
CITY           SKY/WX    TMP DP  RH WIND       PRES   REMARKS
ANDERSON       SUNNY     64  36  34 E17       30.31                   
CP ATTERBURY + SUNNY     68  36  30 NE7G22    30.26F                  
COLUMBUS       SUNNY     68  36  30 NE12      30.25F                  
INDIANAPOLIS   MOSUNNY   67  35  30 NE8       30.26F                  
-EAGLE CREEK   SUNNY     66  35  31 NE10G18   30.27F                  
KOKOMO *+      SUNNY     63  39  42 E17       30.29F                  
MARION +       SUNNY     62  35  35 E13G20    30.31F                  
MT COMFORT *+  SUNNY     66  39  37 E12G17    30.28F                  
SHELBYVILLE    SUNNY     70  36  28 NE10      30.26F                  
ZIONSVILLE +   SUNNY     66  35  30 E9G16     30.29F                  

$$

INZ033-034-041-042-049-050-058-059-192100-
EAST CENTRAL INDIANA
  
CITY           SKY/WX    TMP DP  RH WIND       PRES   REMARKS
MUNCIE         SUNNY     63  38  39 E14G21    30.30F                  

$$

INZ060-061-067>069-081>083-085>088-192100-
SOUTHWEST INDIANA
  
CITY           SKY/WX    TMP DP  RH WIND       PRES   REMARKS
EVANSVILLE     SUNNY     76  36  23 E8        30.20F                  
HUNTINGBURG *+ SUNNY     73  37  27 E9G16     30.21F                  
WASHINGTON +   SUNNY     73  35  25 N3        30.22F                  

$$

INZ062-063-066-070>080-084-089>092-192100-
SOUTH CENTRAL AND SOUTHEAST INDIANA
  
CITY           SKY/WX    TMP DP  RH WIND       PRES   REMARKS
BLOOMINGTON    SUNNY     71  34  25 N9        30.24S                  
NORTH VERNON + SUNNY     70  34  26 NE14      30.25                   

$$


Return to Home page


Western Regional Climate Center, wrcc@dri.edu